Location: Lake Harris Campground
(43.9775°N, 74.1317°W)
Time: 16:09:05
(UTC-05:00)

ISS - All Passes

Search period start: 08 February 2016 00:00
Search period end: 18 February 2016 00:00
Orbit: 399 x 408 km, 51.6° (Epoch: 08 February)

Date Brightness Start Highest point End Pass type
(mag) Time Alt. Az. Time Alt. Az. Time Alt. Az.
08 Feb - 15:37:15 10° S 15:39:44 20° SE 15:42:13 10° E daylight
08 Feb - 17:12:44 10° WSW 17:15:56 57° NNW 17:19:09 10° NE daylight
08 Feb - 18:50:15 10° WNW 18:52:53 22° N 18:55:30 10° NE visible
08 Feb - 20:27:18 10° NW 20:30:04 24° NNE 20:32:48 10° ENE visible
08 Feb - 22:03:36 10° WNW 22:06:51 84° NNE 22:10:06 10° ESE night (unlit)
08 Feb - 23:41:15 10° WSW 23:42:53 13° SW 23:44:31 10° SSW night (unlit)
09 Feb - 14:46:23 10° SSE 14:47:23 11° SE 14:48:22 10° ESE daylight
09 Feb - 16:20:06 10° SW 16:23:20 83° SSE 16:26:36 10° ENE daylight
09 Feb - 17:57:17 10° WNW 18:00:05 26° NNW 18:02:53 10° NE visible
09 Feb - 19:34:40 10° NW 19:37:15 21° N 19:39:50 10° ENE visible
09 Feb - 21:11:03 10° NW 21:14:14 50° NNE 21:17:25 10° ESE night (unlit)
09 Feb - 22:47:50 10° W 22:50:31 24° SW 22:53:11 10° SSE night (unlit)
10 Feb - 15:27:41 10° SW 15:30:48 44° SE 15:33:55 10° ENE daylight
10 Feb - 17:04:19 10° W 17:07:19 33° NNW 17:10:20 10° NE daylight
10 Feb - 18:41:54 10° NW 18:44:26 20° N 18:46:57 10° NE visible
10 Feb - 20:18:31 10° NW 20:21:31 34° NNE 20:24:32 10° E visible
10 Feb - 21:54:56 10° WNW 21:58:03 43° SW 22:01:09 10° SE night (unlit)
11 Feb - 14:35:37 10° SSW 14:38:19 24° SE 14:41:02 10° E daylight
11 Feb - 16:11:26 10° WSW 16:14:36 49° NNW 16:17:47 10° NE daylight
11 Feb - 17:49:00 10° WNW 17:51:35 21° N 17:54:10 10° NE visible
11 Feb - 19:25:57 10° NW 19:28:45 26° NNE 19:31:34 10° ENE visible
11 Feb - 21:02:15 10° WNW 21:05:30 82° SSW 21:08:45 10° SE night (unlit)
11 Feb - 22:40:35 10° WSW 22:41:27 11° SW 22:42:19 10° SW night (unlit)
12 Feb - 13:44:13 10° SSE 13:45:55 14° SE 13:47:36 10° E daylight
12 Feb - 15:18:41 10° WSW 15:21:57 83° NNW 15:25:12 10° ENE daylight
12 Feb - 16:56:01 10° WNW 16:58:45 24° NNW 17:01:29 10° NE daylight
12 Feb - 18:33:18 10° NW 18:35:56 22° N 18:38:34 10° ENE visible
12 Feb - 20:09:38 10° NW 20:12:51 58° NNE 20:16:03 10° ESE visible
12 Feb - 21:46:36 10° W 21:49:04 20° SW 21:51:30 10° S night (unlit)
13 Feb - 14:26:09 10° SW 14:29:20 54° SE 14:32:32 10° ENE daylight
13 Feb - 16:02:59 10° W 16:05:56 31° NNW 16:08:53 10° NE daylight
13 Feb - 17:40:32 10° NW 17:43:04 20° N 17:45:36 10° NE daylight
13 Feb - 19:17:04 10° NW 19:20:08 38° NNE 19:23:12 10° E visible
13 Feb - 20:53:34 10° WNW 20:56:35 36° SW 20:59:35 10° SSE visible
14 Feb - 13:33:56 10° SSW 13:36:48 29° SE 13:39:41 10° ENE daylight
14 Feb - 15:10:02 10° W 15:13:10 43° NNW 15:16:18 10° NE daylight
14 Feb - 16:47:37 10° NW 16:50:11 21° N 16:52:45 10° NE daylight
14 Feb - 18:24:28 10° NW 18:27:20 28° NNE 18:30:12 10° ENE visible
14 Feb - 20:00:47 10° WNW 20:04:01 68° SW 20:07:14 10° SE visible
15 Feb - 12:42:12 10° S 12:44:20 16° SE 12:46:28 10° E daylight
15 Feb - 14:17:12 10° WSW 14:20:26 70° NNW 14:23:41 10° NE daylight
15 Feb - 15:54:37 10° WNW 15:57:18 23° N 16:00:00 10° NE daylight
15 Feb - 17:31:49 10° NW 17:34:29 23° N 17:37:10 10° ENE daylight
15 Feb - 19:08:06 10° NW 19:11:22 69° NNE 19:14:35 10° ESE visible
15 Feb - 20:45:19 10° W 20:47:28 17° SW 20:49:37 10° S visible
16 Feb - 13:24:33 10° SW 13:27:47 66° SE 13:31:00 10° ENE daylight
16 Feb - 15:01:33 10° WNW 15:04:26 28° NNW 15:07:19 10° NE daylight
16 Feb - 16:39:01 10° NW 16:41:35 21° N 16:44:09 10° NE daylight
16 Feb - 18:15:30 10° NW 18:18:37 42° NNE 18:21:44 10° E visible
16 Feb - 19:52:06 10° WNW 19:54:59 30° SW 19:57:51 10° SSE visible
17 Feb - 12:32:10 10° SSW 12:35:11 35° SE 12:38:12 10° ENE daylight
17 Feb - 14:08:32 10° W 14:11:36 38° NNW 14:14:41 10° NE daylight
17 Feb - 15:46:07 10° NW 15:48:40 21° N 15:51:13 10° NE daylight
17 Feb - 17:22:52 10° NW 17:25:48 30° NNE 17:28:44 10° E daylight
17 Feb - 18:59:12 10° WNW 19:02:24 56° SW 19:05:35 10° SE visible
